Regional Weather Roundup
Issued by NWS

Home | Current Version | Previous Version | Graphics & Text | Print | Product List | Glossary On
Versions: 1 2 3 4 5 6 7 8 9 10 11 12 13 14 15 16 17 18 19 20 21 22 23 24 25 26 27 28 29 30 31 32 33 34 35 36 37 38 39 40 41 42 43 44 45 46 47 48 49 50
401
ASUS43 KBIS 240610
RWRND
NORTH DAKOTA REGIONAL WEATHER ROUNDUP
NATIONAL WEATHER SERVICE EASTERN NORTH DAKOTA/GRAND FORKS ND
1200 AM CST SAT FEB 24 2018

  NOTE: "FAIR" INDICATES FEW OR NO CLOUDS BELOW 12,000 FEET WITH NO
  SIGNIFICANT WEATHER AND/OR OBSTRUCTIONS TO VISIBILITY.

NDZ001>003-009>011-017-240700-
...NORTHWEST NORTH DAKOTA...

CITY           SKY/WX    TMP DP  RH WIND       PRES   REMARKS
WILLISTON      FAIR      -2  -4  91 SW5       29.96F WCI -12
6HR MIN TEMP:  -2; 6HR MAX TEMP:  12;

MINOT          FAIR      14   1  56 S8        29.97F WCI   3
MINOT AFB      FAIR      11   1  63 SW18        N/A  WCI  -7
6HR MIN TEMP:   1; 6HR MAX TEMP:  12;

$$

NDZ018>021-031>035-040>046-240700-
...SOUTHWEST NORTH DAKOTA...

CITY           SKY/WX    TMP DP  RH WIND       PRES   REMARKS
BISMARCK       FAIR       2  -1  88 E6        30.12F WCI  -9
DICKINSON      FAIR       4  -4  69 S13       29.94F WCI -13
GARRISON         N/A      2  -1  88 S5        30.03F WCI  -8
HETTINGER      FAIR       1  -5  75 S3        30.00F
$$

NDZ004>008-012>016-024-026-027-054-240700-
...NORTHEAST NORTH DAKOTA...

CITY           SKY/WX    TMP DP  RH WIND       PRES   REMARKS
GRAND FORKS    FAIR       4   0  83 S10       30.20F WCI -11
GRAND FORKS AF NOT AVBL
DEVILS LAKE    FAIR       3  -1  83 SE6       30.11F WCI  -8
$$

NDZ022-023-025-028>030-036>039-047>053-240700-
...SOUTHEAST NORTH DAKOTA...

CITY           SKY/WX    TMP DP  RH WIND       PRES   REMARKS
JAMESTOWN      FAIR       2  -1  88 S3        30.14F
FARGO          FAIR       2  -1  88 S9        30.24F WCI -13
WAHPETON       FAIR     -13 -18  77 CALM      30.27F
$$




USA.gov is the U.S. government's official web portal to all federal, state and local government web resources and services.